ALPHASAT

Last updated on Thu Jul 03 2025 00:02:46 GMT+0000 (Coordinated Universal Time)

1 39215U 13038A 25183.57153047 .00000140 00000+0 00000+0 0 9999 2 39215 2.9435 4.2024 0001931 118.5276 28.7593 1.00271879 40510
UTC large
Height (km)
Speed (km/s)
/
Latitude / Longitude
Inclination (degrees)
Orbital Period (minutes)
Azimuth
Elevation
Range (km)
Doppler Factor

Next 0 passes for location: London (51.5072 / 0.1276)

Sorry there are no passes over London.